Regional Weather Roundup
Issued by NWS

Home | Current Version | Previous Version | Text Only | Print | Product List | Glossary On
Versions: 1 2 3 4 5 6 7 8 9 10 11 12 13 14 15 16 17 18 19 20 21 22 23 24 25 26 27 28 29 30 31 32 33 34 35 36 37 38 39 40 41 42 43 44 45 46 47 48 49 50
000
ASUS43 KLMK 101302
RWRKY
KENTUCKY REGIONAL WEATHER ROUNDUP
NATIONAL WEATHER SERVICE LOUISVILLE KY
800 AM EST SAT DEC 10 2016

NOTE "FAIR" INDICATES FEW OR NO CLOUDS BELOW 12,000 FEET
WITH NO SIGNIFICANT WEATHER AND/OR OBSTRUCTIONS TO VISIBILITY.

KYZ001>023-026-027-061>063-070>075-101400-
WESTERN AND SOUTH CENTRAL KENTUCKY

CITY           SKY/WX    TMP DP  RH WIND       PRES   REMARKS
PADUCAH        CLOUDY    16  11  80 CALM      30.60R
HENDERSON      CLOUDY    23  18  80 CALM      30.62R
OWENSBORO      CLOUDY    21  17  84 CALM      30.62S
HOPKINSVILLE   CLOUDY    17  13  84 CALM      30.60R
BOWLING GREEN  PTCLDY    17  13  84 CALM      30.62R
GLASGOW        NOT AVBL
$$

KYZ024-025-028>034-038-045-046-053-101400-
NORTH CENTRAL KENTUCKY

CITY           SKY/WX    TMP DP  RH WIND       PRES   REMARKS
LOUISVILLE/SDF PTCLDY    21  14  74 S3        30.60S
LOUISVILLE/LOU PTCLDY    20  15  81 CALM      30.61R
FORT KNOX      CLOUDY    16  13  88 CALM      30.57R
$$

KYZ035>037-039>044-047>052-055>060-089>105-101400-
NORTHEAST KENTUCKY

CITY           SKY/WX    TMP DP  RH WIND       PRES   REMARKS
LEXINGTON      CLEAR     17  12  80 CALM      30.57R HAZE
COVINGTON      CLOUDY    20  17  88 SW3       30.55R
FRANKFORT      MOCLDY    15  10  80 CALM      30.58R
$$

KYZ054-064>069-076>088-106>120-101400-
SOUTHEAST KENTUCKY

CITY           SKY/WX    TMP DP  RH WIND       PRES   REMARKS
JACKSON        CLOUDY    18  14  84 CALM      30.54R
LONDON         CLEAR     13   9  84 CALM      30.55S
SOMERSET       FOG       16  16 100 CALM      30.60R VSB 1/4
MIDDLESBORO    CLEAR     14  12  92 CALM      30.58R
MONTICELLO     PTSUNNY   11   9  92 VRB7      30.60R WCI   0
$$





USA.gov is the U.S. government's official web portal to all federal, state and local government web resources and services.